TimeAEST,TemperatureF,Dew PointF,Humidity,Sea Level PressureIn,VisibilityMPH,Wind Direction,Wind SpeedMPH,Gust SpeedMPH,PrecipitationIn,Events,Conditions,WindDirDegrees,DateUTC
12:00 AM,78,73,80,29.72,,West,4.6,,,,,270,2012-01-26 14:00:00
12:00 AM,78.8,73.4,83,29.71,6.2,West,4.6,-,N/A,,Mostly Cloudy,270,2012-01-26 14:00:00
12:30 AM,78.8,71.6,78,29.71,6.2,West,5.8,-,N/A,Rain,Light Rain Showers,270,2012-01-26 14:30:00
1:00 AM,78,72,77,29.69,,West,5.8,,,,,260,2012-01-26 15:00:00
1:00 AM,78.8,71.6,78,29.68,6.2,West,5.8,-,N/A,,Mostly Cloudy,260,2012-01-26 15:00:00
1:30 AM,78.8,71.6,78,29.65,6.2,Calm,Calm,-,N/A,,Mostly Cloudy,0,2012-01-26 15:30:00
2:00 AM,78.8,71.6,78,29.65,6.2,North,5.8,-,N/A,,Mostly Cloudy,350,2012-01-26 16:00:00
2:30 AM,78.8,71.6,78,29.65,6.2,NNW,6.9,-,N/A,,Mostly Cloudy,330,2012-01-26 16:30:00
3:00 AM,78,72,76,29.65,,West,5.8,,,,,280,2012-01-26 17:00:00
3:00 AM,78.8,71.6,78,29.65,6.2,West,5.8,-,N/A,,Mostly Cloudy,280,2012-01-26 17:00:00
3:30 AM,78.8,71.6,78,29.65,6.2,West,6.9,-,N/A,,Mostly Cloudy,280,2012-01-26 17:30:00
4:00 AM,79,71,71,29.65,,West,6.9,,,,,270,2012-01-26 18:00:00
4:00 AM,78.8,71.6,78,29.65,6.2,West,6.9,-,N/A,,Mostly Cloudy,270,2012-01-26 18:00:00
4:30 AM,78.8,71.6,78,29.65,6.2,West,8.1,-,N/A,,Mostly Cloudy,280,2012-01-26 18:30:00
5:00 AM,78.8,71.6,78,29.65,6.2,West,6.9,-,N/A,,Mostly Cloudy,260,2012-01-26 19:00:00
5:30 AM,78.8,73.4,83,29.65,6.2,WNW,5.8,-,N/A,,Mostly Cloudy,290,2012-01-26 19:30:00
6:00 AM,77,74,89,29.67,19,SSE,4.6,,,,Scattered Clouds,150,2012-01-26 20:00:00
6:00 AM,77.0,75.2,94,29.65,6.2,SSE,4.6,-,N/A,,Mostly Cloudy,150,2012-01-26 20:00:00
6:30 AM,77.0,75.2,94,29.68,6.2,Calm,Calm,-,N/A,,Mostly Cloudy,0,2012-01-26 20:30:00
7:00 AM,78,74,86,29.69,,NNW,1.2,,,,,330,2012-01-26 21:00:00
7:00 AM,77.0,75.2,94,29.68,6.2,NNW,1.2,-,N/A,,Mostly Cloudy,330,2012-01-26 21:00:00
7:30 AM,80.6,75.2,84,29.68,6.2,Calm,Calm,-,N/A,,Mostly Cloudy,0,2012-01-26 21:30:00
8:00 AM,80.6,75.2,84,29.68,6.2,West,5.8,-,N/A,,Scattered Clouds,280,2012-01-26 22:00:00
8:30 AM,84.2,77.0,79,29.68,6.2,Calm,Calm,-,N/A,,Scattered Clouds,0,2012-01-26 22:30:00
9:00 AM,85,76,68,29.72,19,NNE,3.5,,,,Partly Cloudy,20,2012-01-26 23:00:00
9:00 AM,84.2,77.0,79,29.71,6.2,NNE,3.5,-,N/A,,Mostly Cloudy,20,2012-01-26 23:00:00
9:30 AM,84.2,75.2,74,29.71,6.2,North,9.2,-,N/A,,Mostly Cloudy,10,2012-01-26 23:30:00
10:00 AM,85,76,69,29.73,,North,8.1,,,,,10,2012-01-27 00:00:00
10:00 AM,84.2,77.0,79,29.71,6.2,North,8.1,-,N/A,,Mostly Cloudy,10,2012-01-27 00:00:00
10:30 AM,86.0,75.2,70,29.71,6.2,North,6.9,-,N/A,,Mostly Cloudy,360,2012-01-27 00:30:00
11:00 AM,86.0,77.0,74,29.71,6.2,North,9.2,-,N/A,,Mostly Cloudy,350,2012-01-27 01:00:00
11:30 AM,86.0,77.0,74,29.68,6.2,North,10.4,-,N/A,,Mostly Cloudy,10,2012-01-27 01:30:00
12:00 PM,87,78,68,29.68,19,North,12.7,,,,Partly Cloudy,10,2012-01-27 02:00:00
12:00 PM,86.0,78.8,79,29.65,6.2,North,12.7,-,N/A,,Mostly Cloudy,10,2012-01-27 02:00:00
12:30 PM,86.0,77.0,74,29.65,6.2,North,15.0,-,N/A,,Mostly Cloudy,360,2012-01-27 02:30:00
1:00 PM,87,78,69,29.66,,North,12.7,,,,,0,2012-01-27 03:00:00
1:00 PM,87.8,78.8,75,29.65,6.2,North,12.7,-,N/A,,Mostly Cloudy,360,2012-01-27 03:00:00
1:30 PM,87.8,78.8,75,29.62,6.2,North,15.0,-,N/A,,Mostly Cloudy,360,2012-01-27 03:30:00
2:00 PM,87.8,78.8,75,29.62,6.2,North,15.0,-,N/A,,Mostly Cloudy,350,2012-01-27 04:00:00
2:30 PM,87.8,78.8,75,29.59,6.2,North,15.0,-,N/A,,Scattered Clouds,360,2012-01-27 04:30:00
3:00 PM,87,79,70,29.61,19,North,13.8,,,,,0,2012-01-27 05:00:00
3:00 PM,87.8,78.8,75,29.59,6.2,North,13.8,-,N/A,,Mostly Cloudy,360,2012-01-27 05:00:00
3:30 PM,86.0,78.8,79,29.59,6.2,North,13.8,-,N/A,,Mostly Cloudy,350,2012-01-27 05:30:00
4:00 PM,85,78,76,29.61,,North,10.4,,,,,0,2012-01-27 06:00:00
4:00 PM,86.0,78.8,79,29.59,6.2,North,10.4,-,N/A,Rain,Light Rain Showers,360,2012-01-27 06:00:00
4:30 PM,82.4,75.2,79,29.59,6.2,North,16.1,-,N/A,Rain,Light Rain Showers,350,2012-01-27 06:30:00
5:00 PM,82.4,77.0,84,29.59,6.2,NNW,6.9,-,N/A,,Mostly Cloudy,330,2012-01-27 07:00:00
5:30 PM,84.2,77.0,79,29.59,6.2,North,11.5,-,N/A,,Mostly Cloudy,360,2012-01-27 07:30:00
6:00 PM,83,77,77,29.60,19,North,8.1,,,,Partly Cloudy,0,2012-01-27 08:00:00
6:00 PM,84.2,77.0,79,29.59,6.2,North,8.1,-,N/A,,Mostly Cloudy,350,2012-01-27 08:00:00
6:30 PM,84.2,77.0,79,29.62,6.2,North,9.2,-,N/A,,Mostly Cloudy,350,2012-01-27 08:30:00
7:00 PM,82,77,80,29.64,,North,9.2,,,,,350,2012-01-27 09:00:00
7:00 PM,82.4,77.0,84,29.62,6.2,North,9.2,-,N/A,,Mostly Cloudy,350,2012-01-27 09:00:00
7:30 PM,82.4,77.0,84,29.65,6.2,NNW,6.9,-,N/A,,Mostly Cloudy,330,2012-01-27 09:30:00
8:00 PM,82.4,77.0,84,29.65,6.2,NNW,8.1,-,N/A,,Mostly Cloudy,340,2012-01-27 10:00:00
8:30 PM,82.4,78.8,89,29.65,6.2,NNW,6.9,-,N/A,,Mostly Cloudy,330,2012-01-27 10:30:00
9:00 PM,82,77,82,29.64,19,West,6.9,,,,Partly Cloudy,270,2012-01-27 11:00:00
9:00 PM,82.4,77.0,84,29.62,6.2,West,6.9,-,N/A,,Mostly Cloudy,270,2012-01-27 11:00:00
9:30 PM,82.4,77.0,84,29.65,6.2,WNW,5.8,-,N/A,,Mostly Cloudy,290,2012-01-27 11:30:00
10:00 PM,82,78,83,29.66,,West,6.9,,,,,280,2012-01-27 12:00:00
10:00 PM,82.4,77.0,84,29.65,6.2,West,6.9,-,N/A,,Mostly Cloudy,280,2012-01-27 12:00:00
10:30 PM,82.4,78.8,89,29.65,6.2,WNW,5.8,-,N/A,Rain,Light Rain Showers,290,2012-01-27 12:30:00
11:00 PM,80.6,78.8,94,29.65,6.2,North,5.8,-,N/A,Thunderstorm,Mostly Cloudy,350,2012-01-27 13:00:00
11:27 PM,80.6,78.8,94,29.65,6.2,Calm,Calm,-,N/A,,Mostly Cloudy,0,2012-01-27 13:27:00
11:30 PM,80.6,78.8,94,29.65,6.2,Calm,Calm,-,N/A,,Mostly Cloudy,0,2012-01-27 13:30:00